When you browse on this site, cookies collect data to enhance your experience and personalize the content and advertising you see.
Visit our Privacy Policy to learn more. By continuing to use the site, you agree to this use of cookies and data.
  • In United Kingdom
  • List of Countries
  • For 7 days
  • Water Temperature
  • Satellite Maps
  • Weather Map
  • Weather Widgets
  • user-avatar
    Login

    Hourly Weather Shora

    Today, 16 June, Sunday

    Time Temperature Precipitation Wind Pressure Humidity
    00:00 +27°C° 0 mm 1 mps 728 mmHg 34%
    01:00 +26°C° 0 mm 1 mps 728 mmHg 34%
    02:00 +25°C° 0 mm 1 mps 727 mmHg 35%
    03:00 +25°C° 0 mm 1 mps 727 mmHg 38%
    04:00 +24°C° 0 mm 1 mps 727 mmHg 40%
    05:00 +23°C° 0 mm 1 mps 728 mmHg 44%
    06:00 +25°C° 0 mm 1 mps 728 mmHg 40%
    07:00 +26°C° 0 mm 1 mps 728 mmHg 36%
    08:00 +28°C° 0 mm 1 mps 728 mmHg 32%
    09:00 +30°C° 0 mm 2 mps 728 mmHg 29%
    10:00 +31°C° 0 mm 3 mps 728 mmHg 26%
    11:00 +34°C° 0 mm 4 mps 728 mmHg 22%
    12:00 +35°C° 0 mm 5 mps 728 mmHg 19%
    13:00 +37°C° 0 mm 5 mps 727 mmHg 16%
    14:00 +39°C° 0 mm 6 mps 727 mmHg 13%
    15:00 +39°C° 0 mm 7 mps 727 mmHg 13%
    16:00 +38°C° 0 mm 7 mps 727 mmHg 13%
    17:00 +38°C° 0 mm 7 mps 727 mmHg 13%
    18:00 +36°C° 0 mm 6 mps 727 mmHg 14%
    19:00 +34°C° 0 mm 5 mps 727 mmHg 14%
    20:00 +32°C° 0 mm 4 mps 727 mmHg 15%
    21:00 +30°C° 0 mm 4 mps 727 mmHg 16%
    22:00 +30°C° 0 mm 4 mps 727 mmHg 16%
    23:00 +29°C° 0 mm 3 mps 727 mmHg 17%

    Tomorrow, 17 June, Monday

    Time Temperature Precipitation Wind Pressure Humidity
    00:00 +28°C° 0 mm 4 mps 727 mmHg 18%
    01:00 +28°C° 0 mm 4 mps 727 mmHg 19%
    02:00 +27°C° 0 mm 4 mps 727 mmHg 19%
    03:00 +27°C° 0 mm 5 mps 727 mmHg 21%
    04:00 +26°C° 0 mm 5 mps 726 mmHg 22%
    05:00 +25°C° 0 mm 5 mps 726 mmHg 23%
    06:00 +26°C° 0 mm 5 mps 727 mmHg 22%
    07:00 +28°C° 0 mm 5 mps 727 mmHg 21%
    08:00 +29°C° 0 mm 5 mps 727 mmHg 19%
    09:00 +32°C° 0 mm 4 mps 727 mmHg 18%
    10:00 +33°C° 0 mm 4 mps 727 mmHg 16%
    11:00 +34°C° 0 mm 3 mps 727 mmHg 15%
    12:00 +35°C° 0 mm 3 mps 727 mmHg 14%
    13:00 +36°C° 0 mm 3 mps 726 mmHg 13%
    14:00 +38°C° 0 mm 4 mps 726 mmHg 12%
    15:00 +38°C° 0 mm 4 mps 726 mmHg 12%
    16:00 +39°C° 0 mm 5 mps 726 mmHg 12%
    17:00 +39°C° 0 mm 5 mps 726 mmHg 12%
    18:00 +36°C° 0 mm 6 mps 726 mmHg 14%
    19:00 +35°C° 0 mm 6 mps 726 mmHg 16%
    20:00 +33°C° 0 mm 6 mps 725 mmHg 17%
    21:00 +32°C° 0 mm 5 mps 726 mmHg 18%
    22:00 +30°C° 0 mm 5 mps 726 mmHg 19%
    23:00 +29°C° 0 mm 4 mps 726 mmHg 20%

    Day after tomorrow, 18 June, Tuesday

    Time Temperature Precipitation Wind Pressure Humidity
    00:00 +29°C° 0 mm 4 mps 725 mmHg 21%
    01:00 +28°C° 0 mm 4 mps 725 mmHg 22%
    02:00 +28°C° 0 mm 4 mps 725 mmHg 23%
    03:00 +27°C° 0 mm 4 mps 725 mmHg 24%
    04:00 +26°C° 0 mm 3 mps 725 mmHg 25%
    05:00 +26°C° 0 mm 3 mps 725 mmHg 27%
    06:00 +27°C° 0 mm 3 mps 725 mmHg 25%
    07:00 +29°C° 0 mm 2 mps 725 mmHg 23%
    08:00 +30°C° 0 mm 2 mps 726 mmHg 21%
    09:00 +32°C° 0 mm 2 mps 725 mmHg 19%
    10:00 +34°C° 0 mm 2 mps 725 mmHg 17%
    11:00 +36°C° 0 mm 2 mps 725 mmHg 15%
    12:00 +37°C° 0 mm 3 mps 725 mmHg 14%
    13:00 +38°C° 0 mm 3 mps 725 mmHg 13%
    14:00 +40°C° 0 mm 4 mps 725 mmHg 12%
    15:00 +40°C° 0 mm 5 mps 725 mmHg 12%
    16:00 +40°C° 0 mm 6 mps 725 mmHg 11%
    17:00 +40°C° 0 mm 7 mps 725 mmHg 11%
    18:00 +38°C° 0 mm 6 mps 725 mmHg 13%
    19:00 +36°C° 0 mm 6 mps 725 mmHg 14%
    20:00 +34°C° 0 mm 6 mps 725 mmHg 16%
    21:00 +33°C° 0 mm 5 mps 725 mmHg 18%
    22:00 +32°C° 0 mm 5 mps 726 mmHg 19%
    23:00 +32°C° 0 mm 5 mps 726 mmHg 21%

    19 June, Wednesday

    Time Temperature Precipitation Wind Pressure Humidity
    00:00 +30°C° 0 mm 4 mps 725 mmHg 21%
    01:00 +30°C° 0 mm 4 mps 725 mmHg 22%
    02:00 +29°C° 0 mm 4 mps 725 mmHg 22%
    03:00 +29°C° 0 mm 3 mps 725 mmHg 24%
    04:00 +28°C° 0 mm 2 mps 725 mmHg 25%
    05:00 +28°C° 0 mm 2 mps 725 mmHg 26%
    06:00 +29°C° 0 mm 2 mps 725 mmHg 25%
    07:00 +30°C° 0 mm 2 mps 725 mmHg 23%
    08:00 +31°C° 0 mm 2 mps 725 mmHg 22%
    09:00 +32°C° 0 mm 2 mps 726 mmHg 21%
    10:00 +35°C° 0 mm 2 mps 725 mmHg 19%
    11:00 +36°C° 0 mm 2 mps 725 mmHg 17%
    12:00 +37°C° 0 mm 3 mps 725 mmHg 16%
    13:00 +38°C° 0 mm 4 mps 725 mmHg 14%
    14:00 +40°C° 0 mm 5 mps 725 mmHg 13%
    15:00 +40°C° 0 mm 5 mps 725 mmHg 13%
    16:00 +40°C° 0 mm 6 mps 725 mmHg 12%
    17:00 +40°C° 0 mm 7 mps 725 mmHg 12%
    18:00 +38°C° 0 mm 7 mps 725 mmHg 12%
    19:00 +36°C° 0 mm 6 mps 725 mmHg 13%
    20:00 +34°C° 0 mm 6 mps 725 mmHg 14%
    21:00 +34°C° 0 mm 6 mps 725 mmHg 15%
    22:00 +33°C° 0 mm 5 mps 725 mmHg 16%
    23:00 +32°C° 0 mm 5 mps 726 mmHg 17%

    20 June, Thursday

    Time Temperature Precipitation Wind Pressure Humidity
    00:00 +30°C° 0 mm 4 mps 725 mmHg 18%
    01:00 +29°C° 0 mm 4 mps 725 mmHg 19%
    02:00 +29°C° 0 mm 4 mps 725 mmHg 20%
    03:00 +28°C° 0 mm 4 mps 725 mmHg 21%
    04:00 +27°C° 0 mm 3 mps 725 mmHg 23%
    05:00 +26°C° 0 mm 2 mps 725 mmHg 24%
    06:00 +28°C° 0 mm 2 mps 725 mmHg 23%
    07:00 +29°C° 0 mm 2 mps 725 mmHg 22%
    08:00 +30°C° 0 mm 2 mps 725 mmHg 21%
    09:00 +32°C° 0 mm 2 mps 725 mmHg 20%
    10:00 +34°C° 0 mm 2 mps 725 mmHg 18%
    11:00 +36°C° 0 mm 2 mps 725 mmHg 16%
    12:00 +37°C° 0 mm 2 mps 725 mmHg 15%
    13:00 +38°C° 0 mm 3 mps 725 mmHg 13%
    14:00 +40°C° 0 mm 4 mps 725 mmHg 11%
    15:00 +40°C° 0 mm 5 mps 725 mmHg 12%
    16:00 +40°C° 0 mm 7 mps 725 mmHg 12%
    17:00 +40°C° 0 mm 8 mps 725 mmHg 12%
    18:00 +38°C° 0 mm 7 mps 725 mmHg 13%
    19:00 +36°C° 0 mm 6 mps 725 mmHg 15%
    20:00 +34°C° 0 mm 6 mps 725 mmHg 17%
    21:00 +33°C° 0 mm 5 mps 725 mmHg 18%
    22:00 +33°C° 0 mm 5 mps 725 mmHg 19%
    23:00 +32°C° 0 mm 4 mps 725 mmHg 21%

    21 June, Friday

    Time Temperature Precipitation Wind Pressure Humidity
    00:00 +30°C° 0 mm 4 mps 725 mmHg 21%
    01:00 +30°C° 0 mm 4 mps 725 mmHg 21%
    02:00 +29°C° 0 mm 4 mps 725 mmHg 21%
    03:00 +29°C° 0 mm 3 mps 725 mmHg 22%
    04:00 +28°C° 0 mm 2 mps 725 mmHg 23%
    05:00 +28°C° 0 mm 2 mps 725 mmHg 24%
    06:00 +29°C° 0 mm 2 mps 725 mmHg 23%
    07:00 +30°C° 0 mm 2 mps 725 mmHg 21%
    08:00 +32°C° 0 mm 2 mps 726 mmHg 20%
    09:00 +34°C° 0 mm 2 mps 726 mmHg 18%
    10:00 +36°C° 0 mm 3 mps 726 mmHg 16%
    11:00 +37°C° 0 mm 3 mps 726 mmHg 15%
    12:00 +38°C° 0 mm 4 mps 725 mmHg 14%
    13:00 +40°C° 0 mm 5 mps 725 mmHg 12%
    14:00 +41°C° 0 mm 7 mps 725 mmHg 11%
    15:00 +41°C° 0 mm 7 mps 725 mmHg 12%
    16:00 +40°C° 0 mm 8 mps 725 mmHg 12%
    17:00 +40°C° 0 mm 9 mps 725 mmHg 12%
    18:00 +39°C° 0 mm 8 mps 725 mmHg 13%
    19:00 +37°C° 0 mm 8 mps 725 mmHg 14%
    20:00 +35°C° 0 mm 7 mps 725 mmHg 14%
    21:00 +34°C° 0 mm 7 mps 725 mmHg 15%
    22:00 +33°C° 0 mm 6 mps 726 mmHg 16%
    23:00 +32°C° 0 mm 6 mps 726 mmHg 18%
    Show more